| time (UTC) | temp F | wind direction | speed knots | gust knots | rain 1hr in | rain 24hr in | rain mn in | humidity % | barometer mb |
| 20260505041416 | 70 | 214 | 3.5 | 7.8 | 0.00 | 0.00 | 0.00 | 62 | 1002.7 |
| 20260505040913 | 70 | 315 | 4.3 | 6.1 | 0.00 | 0.00 | 0.00 | 62 | 1002.7 |
| 20260505040411 | 70 | 224 | 2.6 | 7.0 | 0.00 | 0.00 | 0.00 | 62 | 1002.6 |
| 20260505035907 | 70 | 170 | 4.3 | 6.1 | 0.00 | 0.00 | 0.00 | 62 | 1002.6 |
| 20260505035403 | 70 | 195 | 1.7 | 5.2 | 0.00 | 0.00 | 0.00 | 62 | 1002.7 |
| 20260505034901 | 70 | 217 | 1.7 | 7.0 | 0.00 | 0.00 | 0.00 | 62 | 1002.8 |
| 20260505034357 | 70 | 238 | 4.3 | 11.3 | 0.00 | 0.00 | 0.00 | 61 | 1002.8 |
| 20260505033854 | 70 | 194 | 3.5 | 6.1 | 0.00 | 0.00 | 0.00 | 62 | 1002.8 |
| 20260505033351 | 70 | 180 | 2.6 | 6.1 | 0.00 | 0.00 | 0.00 | 62 | 1002.9 |
| 20260505032850 | 70 | 191 | 1.7 | 5.2 | 0.00 | 0.00 | 0.00 | 63 | 1002.9 |
| 20260505032346 | 70 | 215 | 4.3 | 6.1 | 0.00 | 0.00 | 0.00 | 62 | 1002.9 |
| 20260505031843 | 70 | 209 | 0.9 | 1.7 | 0.00 | 0.00 | 0.00 | 63 | 1002.7 |
| 20260505031339 | 70 | 206 | 4.3 | 7.8 | 0.00 | 0.00 | 0.00 | 61 | 1002.9 |
| 20260505030837 | 70 | 201 | 0.0 | 5.2 | 0.00 | 0.00 | 0.00 | 62 | 1002.8 |
| 20260505030332 | 70 | 222 | 3.5 | 7.0 | 0.00 | 0.00 | 0.00 | 62 | 1002.7 |
| 20260505025828 | 70 | 171 | 2.6 | 7.0 | 0.00 | 0.00 | 0.00 | 63 | 1002.9 |
| 20260505025326 | 69 | 189 | 0.9 | 1.7 | 0.00 | 0.00 | 0.00 | 64 | 1002.7 |
| 20260505024824 | 69 | 194 | 3.5 | 5.2 | 0.00 | 0.00 | 0.00 | 65 | 1002.5 |
| 20260505024322 | 69 | 178 | 0.9 | 2.6 | 0.00 | 0.00 | 0.00 | 65 | 1002.6 |
| 20260505023819 | 69 | 202 | 1.7 | 2.6 | 0.00 | 0.00 | 0.00 | 65 | 1002.7 |
| 20260505023315 | 69 | 237 | 0.9 | 2.6 | 0.00 | 0.00 | 0.00 | 65 | 1002.5 |
| 20260505022813 | 69 | 165 | 1.7 | 2.6 | 0.00 | 0.00 | 0.00 | 65 | 1002.4 |
| 20260505022310 | 69 | 144 | 1.7 | 4.3 | 0.00 | 0.00 | 0.00 | 65 | 1002.3 |
| 20260505021807 | 69 | 197 | 0.9 | 2.6 | 0.00 | 0.00 | 0.00 | 65 | 1002.2 |
| 20260505021303 | 69 | 187 | 1.7 | 2.6 | 0.00 | 0.00 | 0.00 | 65 | 1002.1 |
| 20260505020759 | 69 | 165 | 1.7 | 2.6 | 0.00 | 0.00 | 0.00 | 65 | 1002.3 |
| 20260505020254 | 69 | 184 | 0.9 | 1.7 | 0.00 | 0.00 | 0.00 | 65 | 1001.7 |
| 20260505015752 | 69 | 193 | 2.6 | 2.6 | 0.00 | 0.00 | 0.00 | 65 | 1001.6 |
| 20260505015249 | 69 | 167 | 2.6 | 5.2 | 0.00 | 0.00 | 0.00 | 64 | 1001.5 |
| 20260505014746 | 70 | 123 | 0.9 | 2.6 | 0.00 | 0.00 | 0.00 | 64 | 1001.7 |
| 20260505014243 | 70 | 183 | 1.7 | 2.6 | 0.00 | 0.00 | 0.00 | 63 | 1001.5 |
| 20260505013739 | 70 | 185 | 2.6 | 2.6 | 0.00 | 0.00 | 0.00 | 63 | 1001.2 |
| 20260505013237 | 70 | 215 | 0.9 | 1.7 | 0.00 | 0.00 | 0.00 | 62 | 1001.4 |
| 20260505012735 | 71 | 185 | 1.7 | 1.7 | 0.00 | 0.00 | 0.00 | 62 | 1001.7 |
| 20260505012232 | 71 | 208 | 1.7 | 1.7 | 0.00 | 0.00 | 0.00 | 60 | 1001.5 |
| 20260505011728 | 71 | 172 | 2.6 | 4.3 | 0.00 | 0.00 | 0.00 | 61 | 1001.5 |
| 20260505011225 | 71 | 193 | 2.6 | 4.3 | 0.00 | 0.00 | 0.00 | 59 | 1001.4 |
| 20260505010721 | 72 | 183 | 3.5 | 5.2 | 0.00 | 0.00 | 0.00 | 59 | 1001.2 |
| 20260505010217 | 72 | 202 | 3.5 | 6.1 | 0.00 | 0.00 | 0.00 | 59 | 1001.3 |
| 20260505005714 | 72 | 165 | 3.5 | 7.8 | 0.00 | 0.00 | 0.00 | 58 | 1001.1 |
| 20260505005211 | 72 | 166 | 3.5 | 7.0 | 0.00 | 0.00 | 0.00 | 58 | 1001.5 |
| 20260505004708 | 72 | 189 | 3.5 | 4.3 | 0.00 | 0.00 | 0.00 | 58 | 1001.4 |
| 20260505004204 | 73 | 168 | 3.5 | 4.3 | 0.00 | 0.00 | 0.00 | 58 | 1001.4 |
| 20260505003702 | 73 | 169 | 2.6 | 5.2 | 0.00 | 0.00 | 0.00 | 57 | 1001.4 |
| 20260505003159 | 73 | 218 | 6.1 | 7.8 | 0.00 | 0.00 | 0.00 | 56 | 1001.4 |
| 20260505002655 | 73 | 251 | 1.7 | 5.2 | 0.00 | 0.00 | 0.00 | 56 | 1001.3 |
| 20260505002153 | 74 | 165 | 0.9 | 4.3 | 0.00 | 0.00 | 0.00 | 56 | 1001.5 |
| 20260505001650 | 74 | 214 | 3.5 | 7.0 | 0.00 | 0.00 | 0.00 | 54 | 1001.4 |
| 20260505001148 | 74 | 185 | 4.3 | 7.0 | 0.00 | 0.00 | 0.00 | 54 | 1001.6 |
| 20260505000644 | 74 | 193 | 4.3 | 5.2 | 0.00 | 0.00 | 0.00 | 54 | 1001.6 |
| 20260505000143 | 75 | 212 | 1.7 | 4.3 | 0.00 | 0.00 | 0.00 | 53 | 1001.8 |
| 20260504235638 | 75 | 214 | 2.6 | 8.7 | 0.00 | 0.00 | 0.00 | 52 | 1001.8 |
| 20260504235135 | 75 | 233 | 4.3 | 8.7 | 0.00 | 0.00 | 0.00 | 51 | 1001.6 |
| 20260504234632 | 75 | 289 | 1.7 | 6.1 | 0.00 | 0.00 | 0.00 | 51 | 1002.1 |
| 20260504234130 | 75 | 203 | 1.7 | 2.6 | 0.00 | 0.00 | 0.00 | 51 | 1001.8 |
| 20260504233625 | 75 | 185 | 2.6 | 8.7 | 0.00 | 0.00 | 0.00 | 52 | 1002.2 |
| 20260504233121 | 75 | 167 | 4.3 | 9.6 | 0.00 | 0.00 | 0.00 | 51 | 1002.2 |
| 20260504232619 | 75 | 205 | 7.8 | 12.2 | 0.00 | 0.00 | 0.00 | 51 | 1002.1 |
| 20260504232116 | 75 | 201 | 0.0 | 4.3 | 0.00 | 0.00 | 0.00 | 52 | 1002.2 |
| 20260504231613 | 76 | 207 | 4.3 | 7.8 | 0.00 | 0.00 | 0.00 | 51 | 1002.1 |
| 20260504231109 | 76 | 107 | 1.7 | 13.9 | 0.00 | 0.00 | 0.00 | 53 | 1002.1 |
| 20260504230605 | 77 | 206 | 2.6 | 6.1 | 0.00 | 0.00 | 0.00 | 54 | 1002.1 |
| 20260504230104 | 76 | 263 | 2.6 | 5.2 | 0.00 | 0.00 | 0.00 | 54 | 1002.1 |
| 20260504225601 | 76 | 127 | 2.6 | 7.8 | 0.00 | 0.00 | 0.00 | 56 | 1002.1 |
| 20260504225058 | 76 | 196 | 0.9 | 2.6 | 0.00 | 0.00 | 0.00 | 56 | 1002.2 |
| 20260504224555 | 75 | 163 | 0.9 | 4.3 | 0.00 | 0.00 | 0.00 | 56 | 1002.2 |
| 20260504224052 | 75 | 174 | 1.7 | 4.3 | 0.00 | 0.00 | 0.00 | 56 | 1002.4 |
| 20260504223549 | 75 | 183 | 1.7 | 2.6 | 0.00 | 0.00 | 0.00 | 56 | 1002.3 |
| 20260504223044 | 75 | 184 | 0.9 | 2.6 | 0.00 | 0.00 | 0.00 | 56 | 1002.3 |
| 20260504222542 | 75 | 194 | 0.9 | 4.3 | 0.00 | 0.00 | 0.00 | 55 | 1002.5 |
| 20260504222039 | 75 | 182 | 1.7 | 2.6 | 0.00 | 0.00 | 0.00 | 55 | 1002.6 |
| 20260504221536 | 75 | 223 | 2.6 | 4.3 | 0.00 | 0.00 | 0.00 | 54 | 1002.6 |
| 20260504221032 | 75 | 229 | 0.9 | 4.3 | 0.00 | 0.00 | 0.00 | 54 | 1002.7 |
| 20260504220529 | 75 | 253 | 1.7 | 2.6 | 0.00 | 0.00 | 0.00 | 55 | 1002.6 |
| 20260504220026 | 75 | 246 | 2.6 | 2.6 | 0.00 | 0.00 | 0.00 | 54 | 1002.7 |
| 20260504215522 | 75 | 275 | 0.0 | 1.7 | 0.00 | 0.00 | 0.00 | 54 | 1002.8 |
| 20260504215020 | 75 | 216 | 0.0 | 4.3 | 0.00 | 0.00 | 0.00 | 53 | 1002.6 |
| 20260504214516 | 75 | 218 | 0.0 | 2.6 | 0.00 | 0.00 | 0.00 | 54 | 1002.5 |
| 20260504214012 | 75 | 195 | 0.0 | 7.0 | 0.00 | 0.00 | 0.00 | 54 | 1002.5 |
| 20260504213509 | 75 | 208 | 0.0 | 2.6 | 0.00 | 0.00 | 0.00 | 55 | 1002.9 |
| 20260504213007 | 75 | 268 | 0.0 | 0.9 | 0.00 | 0.00 | 0.00 | 56 | 1003.1 |
| 20260504212502 | 75 | 313 | 0.0 | 2.6 | 0.00 | 0.00 | 0.00 | 54 | 1003.3 |
| 20260504212000 | 75 | 300 | 0.0 | 1.7 | 0.00 | 0.00 | 0.00 | 55 | 1003.4 |
| 20260504211456 | 75 | 336 | 0.0 | 2.6 | 0.00 | 0.00 | 0.00 | 54 | 1003.5 |
| 20260504210954 | 76 | 191 | 0.0 | 1.7 | 0.00 | 0.00 | 0.00 | 54 | 1003.4 |
| 20260504210450 | 75 | 210 | 0.0 | 2.6 | 0.00 | 0.00 | 0.00 | 55 | 1003.4 |
| 20260504205947 | 75 | 187 | 0.9 | 5.2 | 0.00 | 0.00 | 0.00 | 53 | 1003.5 |
| 20260504205445 | 75 | 290 | 0.0 | 4.3 | 0.00 | 0.00 | 0.00 | 54 | 1003.6 |
| 20260504204943 | 75 | 295 | 0.0 | 0.9 | 0.00 | 0.00 | 0.00 | 56 | 1003.8 |
| 20260504204441 | 74 | 285 | 2.6 | 4.3 | 0.00 | 0.00 | 0.00 | 55 | 1003.6 |
| 20260504203940 | 74 | 222 | 3.5 | 7.0 | 0.00 | 0.00 | 0.00 | 56 | 1003.8 |
| 20260504203437 | 74 | 213 | 3.5 | 5.2 | 0.00 | 0.00 | 0.00 | 56 | 1003.6 |
| 20260504202933 | 74 | 218 | 0.9 | 1.7 | 0.00 | 0.00 | 0.00 | 56 | 1004.0 |
| 20260504202430 | 74 | 128 | 0.0 | 7.0 | 0.00 | 0.00 | 0.00 | 56 | 1004.1 |
| 20260504201926 | 74 | 48 | 4.3 | 5.2 | 0.00 | 0.00 | 0.00 | 58 | 1004.2 |
| 20260504201424 | 73 | 234 | 0.0 | 6.1 | 0.00 | 0.00 | 0.00 | 59 | 1004.2 |
| 20260504200921 | 74 | 185 | 4.3 | 7.0 | 0.00 | 0.00 | 0.00 | 58 | 1003.9 |
| 20260504200418 | 74 | 244 | 0.0 | 2.6 | 0.00 | 0.00 | 0.00 | 59 | 1003.9 |
| 20260504195915 | 74 | 356 | 0.0 | 7.0 | 0.00 | 0.00 | 0.00 | 60 | 1004.2 |
| 20260504195410 | 73 | 208 | 2.6 | 8.7 | 0.00 | 0.00 | 0.00 | 60 | 1004.2 |
| 20260504194907 | 71 | 112 | 0.9 | 6.1 | 0.00 | 0.00 | 0.00 | 64 | 1004.2 |
| 20260504194403 | 71 | 189 | 2.6 | 7.8 | 0.00 | 0.00 | 0.00 | 64 | 1004.1 |
| 20260504193859 | 70 | 200 | 2.6 | 7.0 | 0.00 | 0.00 | 0.00 | 66 | 1004.1 |
| 20260504193356 | 69 | 196 | 3.5 | 6.1 | 0.00 | 0.00 | 0.00 | 68 | 1004.3 |
| 20260504192855 | 69 | 184 | 0.0 | 7.8 | 0.00 | 0.00 | 0.00 | 69 | 1004.7 |
| 20260504192352 | 68 | 232 | 6.1 | 7.0 | 0.00 | 0.00 | 0.00 | 70 | 1004.6 |
| 20260504191850 | 68 | 269 | 0.0 | 2.6 | 0.00 | 0.00 | 0.00 | 73 | 1004.6 |
| 20260504191348 | 67 | 165 | 0.9 | 1.7 | 0.00 | 0.00 | 0.00 | 73 | 1004.5 |
| 20260504190843 | 67 | 163 | 1.7 | 4.3 | 0.00 | 0.00 | 0.00 | 74 | 1005.0 |
| 20260504190339 | 68 | 215 | 2.6 | 6.1 | 0.00 | 0.00 | 0.00 | 73 | 1005.3 |
| 20260504185836 | 67 | 223 | 2.6 | 4.3 | 0.00 | 0.00 | 0.00 | 72 | 1004.9 |
| 20260504185333 | 67 | 180 | 1.7 | 2.6 | 0.00 | 0.00 | 0.00 | 72 | 1004.8 |
| 20260504184829 | 68 | 206 | 3.5 | 5.2 | 0.00 | 0.00 | 0.00 | 69 | 1005.4 |
| 20260504184325 | 68 | 300 | 0.0 | 6.1 | 0.00 | 0.00 | 0.00 | 67 | 1005.7 |
| 20260504183821 | 69 | 267 | 1.7 | 6.1 | 0.00 | 0.00 | 0.00 | 66 | 1005.2 |
| 20260504183319 | 69 | 190 | 6.1 | 9.6 | 0.00 | 0.00 | 0.00 | 65 | 1005.3 |
| 20260504182816 | 69 | 208 | 3.5 | 5.2 | 0.00 | 0.00 | 0.00 | 65 | 1005.0 |
| 20260504182314 | 69 | 239 | 7.8 | 11.3 | 0.00 | 0.00 | 0.00 | 64 | 1005.0 |
| 20260504181810 | 70 | 176 | 2.6 | 9.6 | 0.00 | 0.00 | 0.00 | 63 | 1004.9 |
| 20260504181308 | 71 | 188 | 1.7 | 7.0 | 0.00 | 0.00 | 0.00 | 63 | 1004.8 |
| 20260504180807 | 71 | 231 | 2.6 | 7.8 | 0.00 | 0.00 | 0.00 | 63 | 1004.5 |
| 20260504180305 | 71 | 205 | 6.1 | 9.6 | 0.00 | 0.00 | 0.00 | 62 | 1004.4 |
| 20260504175803 | 72 | 220 | 6.1 | 13.0 | 0.00 | 0.00 | 0.00 | 62 | 1004.7 |
| 20260504175259 | 73 | 300 | 1.7 | 12.2 | 0.00 | 0.00 | 0.00 | 61 | 1004.3 |
| 20260504174757 | 72 | 304 | 0.0 | 7.8 | 0.00 | 0.00 | 0.00 | 62 | 1004.1 |
| 20260504174255 | 71 | 340 | 4.3 | 8.7 | 0.00 | 0.00 | 0.00 | 63 | 1004.1 |
| 20260504173751 | 71 | 220 | 0.9 | 7.0 | 0.00 | 0.00 | 0.00 | 63 | 1004.1 |
| 20260504173248 | 71 | 195 | 4.3 | 12.2 | 0.00 | 0.00 | 0.00 | 63 | 1004.0 |
| 20260504172745 | 71 | 189 | 3.5 | 7.0 | 0.00 | 0.00 | 0.00 | 64 | 1004.0 |
| 20260504172242 | 71 | 190 | 5.2 | 7.8 | 0.00 | 0.00 | 0.00 | 63 | 1004.4 |
| 20260504171737 | 70 | 180 | 1.7 | 2.6 | 0.00 | 0.00 | 0.00 | 64 | 1004.4 |
| 20260504171235 | 70 | 157 | 1.7 | 1.7 | 0.00 | 0.00 | 0.00 | 64 | 1004.6 |
| 20260504170732 | 69 | 182 | 4.3 | 5.2 | 0.00 | 0.00 | 0.00 | 64 | 1004.2 |
| 20260504170229 | 68 | 181 | 2.6 | 5.2 | 0.00 | 0.00 | 0.00 | 66 | 1004.3 |
| 20260504160147 | 65 | 230 | 0.0 | 4.3 | 0.00 | 0.00 | 0.00 | 67 | 1005.4 |
| 20260504151115 | 64 | 202 | 3.5 | 6.1 | 0.00 | 0.00 | 0.00 | 66 | 1005.5 |
| 20260504150612 | 64 | 177 | 2.6 | 6.1 | 0.00 | 0.00 | 0.00 | 66 | 1005.0 |
| 20260504150109 | 65 | 210 | 5.2 | 9.6 | 0.00 | 0.00 | 0.00 | 66 | 1005.4 |
| 20260504141038 | 63 | 193 | 3.5 | 4.3 | 0.00 | 0.00 | 0.00 | 67 | 1005.4 |
| 20260504140535 | 62 | 231 | 1.7 | 4.3 | 0.00 | 0.00 | 0.00 | 67 | 1005.5 |
| 20260504130459 | 58 | 176 | 4.3 | 7.0 | 0.00 | 0.00 | 0.00 | 72 | 1005.9 |
| 20260504110346 | 52 | 162 | 0.9 | 0.9 | 0.00 | 0.00 | 0.00 | 76 | 1005.7 |
| 20260504100303 | 50 | 149 | 0.0 | 0.9 | 0.00 | 0.00 | 0.00 | 77 | 1005.9 |
| 20260504081657 | 54 | 178 | 0.9 | 1.7 | 0.00 | 0.00 | 0.00 | 67 | 1006.8 |
| 20260504081153 | 54 | 160 | 1.7 | 1.7 | 0.00 | 0.00 | 0.00 | 66 | 1006.6 |
| 20260504080649 | 55 | 178 | 1.7 | 2.6 | 0.00 | 0.00 | 0.00 | 66 | 1006.8 |
| 20260504080146 | 55 | 170 | 1.7 | 4.3 | 0.00 | 0.00 | 0.00 | 66 | 1006.7 |
| 20260504070114 | 55 | 190 | 0.9 | 1.7 | 0.00 | 0.00 | 0.00 | 64 | 1007.1 |
| 20260504050502 | 54 | 188 | 1.7 | 1.7 | 0.00 | 0.00 | 0.00 | 66 | 1008.5 |
| 20260504045959 | 54 | 173 | 0.9 | 1.7 | 0.00 | 0.00 | 0.00 | 66 | 1008.3 |
| 20260504045455 | 54 | 186 | 0.9 | 2.6 | 0.00 | 0.00 | 0.00 | 66 | 1008.4 |
| 20260504044951 | 54 | 159 | 1.7 | 1.7 | 0.00 | 0.00 | 0.00 | 65 | 1008.8 |
| 20260504044449 | 54 | 154 | 1.7 | 1.7 | 0.00 | 0.00 | 0.00 | 66 | 1008.5 |
| 20260504043946 | 54 | 201 | 0.9 | 1.7 | 0.00 | 0.00 | 0.00 | 66 | 1008.5 |
| 20260504043443 | 54 | 142 | 1.7 | 2.6 | 0.00 | 0.00 | 0.00 | 66 | 1008.7 |
| 20260504042941 | 54 | 199 | 2.6 | 2.6 | 0.00 | 0.00 | 0.00 | 66 | 1008.7 |
| 20260504042437 | 54 | 156 | 0.9 | 1.7 | 0.00 | 0.00 | 0.00 | 66 | 1008.7 |
| 20260504041934 | 54 | 169 | 1.7 | 1.7 | 0.00 | 0.00 | 0.00 | 66 | 1008.9 |